This is the latest recevied weather packets stored in our database for station/object AG1T-20. If no packets are shown the sender has not sent any weather packets the latest 10 day(s).
| Time | Temp. | Humidity | Pressure | Rain* | Wind** | Luminosity | Snow |
|---|---|---|---|---|---|---|---|
| 1788600005 | 23.33° C | 26% | 1021.8 hPa | 0 mm | - | 0 W/m² | - |
| 1788599404 | 23.89° C | 25% | 1021.5 hPa | 0 mm | - | 0 W/m² | - |
| 1788598804 | 23.89° C | 25% | 1021.5 hPa | 0 mm | - | 0 W/m² | - |
| 1788598204 | 23.33° C | 26% | 1021.5 hPa | 0 mm | - | 0 W/m² | - |
| 1788597605 | 23.89° C | 25% | 1021.2 hPa | 0 mm | - | 0 W/m² | - |
| 1788597004 | 24.44° C | 24% | 1020.9 hPa | 0 mm | - | 0 W/m² | - |
| 1788596404 | 24.44° C | 24% | 1020.9 hPa | 0 mm | - | 0 W/m² | - |
| 1788595804 | 24.44° C | 24% | 1020.7 hPa | 0 mm | - | 0 W/m² | - |
| 1788595204 | 24.44° C | 24% | 1020.8 hPa | 0 mm | - | 0 W/m² | - |
| 1788594605 | 24.44° C | 24% | 1020.7 hPa | 0 mm | - | 0 W/m² | - |
| 1788594004 | 24.44° C | 24% | 1020.7 hPa | 0 mm | - | 0 W/m² | - |
| 1788593404 | 25° C | 24% | 1020.3 hPa | 0 mm | - | 0 W/m² | - |
| 1788592819 | 25° C | 23% | 1020.1 hPa | 0 mm | - | 0 W/m² | - |
| 1788592204 | 25° C | 24% | 1020 hPa | 0 mm | - | 0 W/m² | - |
| 1788591605 | 25° C | 23% | 1019.9 hPa | 0 mm | - | 0 W/m² | - |
| 1788591004 | 25° C | 23% | 1019.6 hPa | 0 mm | - | 0 W/m² | - |
| 1788590404 | 25° C | 23% | 1019.6 hPa | 0 mm | - | 0 W/m² | - |
| 1788589804 | 25° C | 23% | 1019.6 hPa | 0 mm | - | 0 W/m² | - |
| 1788589204 | 24.44° C | 24% | 1019.7 hPa | 0 mm | - | 0 W/m² | - |
| 1788588604 | 24.44° C | 24% | 1019.4 hPa | 0 mm | - | 0 W/m² | - |
| 1788588004 | 25.56° C | 23% | 1019.2 hPa | 0 mm | - | 0 W/m² | - |
| 1788587404 | 25° C | 24% | 1019 hPa | 0 mm | - | 0 W/m² | - |
| 1788586804 | 25° C | 23% | 1018.8 hPa | 0 mm | - | 0 W/m² | - |
| 1788586204 | 25° C | 23% | 1018.7 hPa | 0 mm | - | 0 W/m² | - |
| 1788585604 | 25.56° C | 23% | 1018.4 hPa | 0 mm | - | 0 W/m² | - |
* Rain latest hour (hover to see other rain measurements)
** Current wind speed in m/s (hover to see current wind gust speed)